Showing default

BALKAN-1, 62611

Orbit data source: Space-Track

BALKAN-1, 62611 is a payload satellite owned by Endurosat (BG) in SSO that was launched on Tue, 14 Jan 2025 UTC via an FALCON 9 launch vehicle from the Air Force Western Test Range (AFWTR). Payload-class satellites include a variety of spacecraft equipped with specific instruments for various scientific and technological missions. These include communications satellites like Starlink; space stations such as the ISS; scientific satellites like the Hubble; Earth observation satellites from companies like Planet Labs, Umbra, and HawkEye 360; GPS; miniature CubeSats for education and research; and military/defense satellites.

Loading next visibility...
Identifier
62611, 2025-009C
Orbit
SSO
Country
Flag of BGBG / BGR
Related business
Manufacturer
Endurosat
Mission
Operational Commercial Imaging
Bus & Motor
CUBESAT 16U, Unknown motor
Mass
32 kg wet, 32 kg dry
Launch date (UTC)
2025-01-14 (1 year ago)
Launch vehicle
FALCON 9
Launch site
Air Force Western Test Range (AFWTR)
Object type
Payload
Rocket body
Debris
Shape & HBR
Box + 2 Pan, 0.7 m
Radar Cross Section
0.124 m², Medium (>0.1 m² and < 1m²)

Expand to show TLE details & history
Last TLE update: 16 hours ago

TLE from 16 hours ago
0 BALKAN-1
1 62611U 25009C   26124.76534060  .00007657  00000-0  31440-3 0  9998
2 62611  97.3923 204.5622 0008468 121.9605 238.2457 15.24457251 72143
Epoch: 2026-05-04T18:22Z
TLE epoch observation values (Epoch: 2026-05-04T18:22:05.427Z)
Latitude
-0.00004°
Longitude
66.38975°
Altitude
498.579 km
Speed
7.614 km/s
True Right ascension
13h 38m 14s
True Declination
0° 00' 00"
Sunlit
Object was in full shadow at epoch
Visualization orbit readout
Latitude
Unknown
Longitude
Unknown
Altitude
Unknown
Speed
Unknown
Apparent Right ascension
Unknown
Apparent Declination
Unknown
Sunlit
N/A
Visualization observer readout
Local Sidereal Time
18:33:36
Azimuth
Unknown
Elevation
Unknown
Doppler factor
Unknown
Orbital elements
Apogee altitude
495.19 km
Perigee altitude
483.56 km
Semi-major axis
6,867.512 km
Eccentricity
0.00085
Inclination
97.3923°
RAAN
204.5622°
Arg. of periapsis
121.9605°
True anomaly
238.16323°
Mean anomaly
238.2457°
Eccentric anomaly
238.20446°
Mean motion
3.81368 °/min
Orbital period
94.4 mins
BSTAR
0.0003144
Loading maneuver chart data...
Computing Atmospheric mass density...
Loading historical data...
Loading historical data...
Loading historical data...
Loading historical data...
Loading historical data...
Loading historical data...
Loading historical data...

Documentation

Showing up to 5 results
|